GEFSSE_con_prob3kmehi_336.txt.gz
EHI
0 2 6 7 5 4 4 3 3 3 3 5 7 7 6 6 6 4 2 1 1 2 2 2 2 1 0 1 2 2 2 3 2 0 0 0 1 4 4 2 1 1 1
1 3 5 7 6 5 3 2 2 3 3 4 6 6 5 5 4 3 3 2 1 1 1 1 1 0 0 0 1 1 2 3 1 0 0 0 1 3 4 2 1 2 2
1 3 5 6 6 5 3 1 1 2 3 4 6 7 6 4 3 4 3 3 2 1 0 0 0 0 0 0 0 1 2 3 2 0 0 0 2 3 3 1 1 2 3
2 3 4 5 5 5 4 3 2 2 3 4 6 7 6 4 3 3 3 3 3 2 1 1 1 1 0 0 0 1 2 4 2 1 0 0 1 2 2 1 1 3 3
3 3 3 3 3 5 6 6 6 4 3 4 4 5 4 3 2 2 2 1 2 2 2 3 4 4 2 1 0 1 1 2 2 1 0 0 1 2 3 3 3 4 4
2 3 2 2 2 4 7 8 8 6 4 3 3 3 3 3 2 3 3 2 2 2 3 4 4 5 4 3 1 1 1 1 1 0 0 0 1 3 5 5 5 6 6
1 1 1 1 1 3 6 7 7 6 4 3 3 2 2 2 2 3 4 5 4 3 3 3 2 3 4 4 2 2 2 1 0 0 0 0 1 4 7 7 6 6 6
0 0 0 0 0 1 3 5 6 6 4 2 2 2 2 2 3 3 4 6 6 4 3 3 2 1 2 3 2 2 2 1 0 0 0 0 1 4 7 8 8 8 8
0 0 0 0 0 0 1 2 4 5 3 2 2 3 3 3 4 5 5 5 5 4 3 2 1 0 1 2 2 2 2 1 0 0 0 1 2 4 6 8 9 9 9
0 0 0 0 0 0 0 1 3 4 3 2 3 3 3 3 4 5 5 5 4 3 2 1 0 0 0 1 1 2 2 1 0 0 0 1 3 3 4 6 7 8 8
1 0 0 0 0 0 0 0 1 2 3 2 2 2 2 1 1 2 3 4 3 3 2 1 1 0 0 0 1 1 1 0 0 0 1 2 3 3 3 4 5 6 6
1 1 1 2 2 2 1 0 0 1 1 1 1 1 1 0 0 1 2 2 2 2 2 2 1 0 0 0 0 0 0 0 0 1 2 3 3 3 3 4 4 4 5
1 2 2 3 3 3 2 1 1 1 1 1 0 0 0 0 0 0 0 0 1 1 1 1 0 0 0 0 0 0 0 0 0 1 3 3 2 2 3 4 4 4 4
0 1 2 3 3 3 3 2 2 2 2 2 1 0 0 0 0 0 0 0 0 1 1 0 0 0 0 0 0 0 0 0 1 2 2 2 1 1 2 4 5 5 4
0 0 1 1 2 2 2 1 1 1 2 2 1 0 0 0 0 0 0 0 0 1 1 0 0 0 0 0 0 0 0 0 1 1 1 0 1 1 2 4 5 4 3
0 0 0 0 1 1 1 0 0 0 1 1 0 0 0 0 0 0 0 0 0 0 0 0 0 0 0 0 0 0 0 0 0 0 0 0 1 1 2 4 5 4 3
1 1 1 1 1 1 0 0 0 0 0 0 0 0 0 0 0 1 0 0 0 0 0 0 0 0 0 0 0 0 0 0 0 0 0 0 1 1 2 3 3 3 4
2 2 2 2 2 1 0 0 0 0 0 0 0 0 0 0 0 0 0 0 0 0 0 0 0 0 0 0 0 0 0 0 0 0 0 0 0 0 1 2 3 3 5
2 1 1 1 1 1 0 0 0 0 0 0 0 0 0 0 0 0 0 0 0 0 0 0 0 0 0 0 0 0 0 0 0 0 0 0 0 0 0 1 2 3 3
1 0 0 0 0 0 0 0 0 0 0 0 0 0 0 0 0 0 0 0 0 0 0 0 0 0 0 0 0 0 0 0 0 0 0 0 0 0 0 0 1 1 1
0 0 0 0 0 0 0 0 0 1 2 1 1 1 1 1 1 0 0 0 0 0 0 0 0 0 0 0 0 0 0 0 0 0 0 0 0 0 0 0 0 0 0
1 1 1 1 1 1 1 1 1 2 3 3 2 2 2 2 1 0 0 0 0 0 0 0 0 0 0 0 0 0 0 0 0 0 0 0 0 0 0 0 0 0 0
1 1 2 1 1 2 3 3 3 4 3 3 2 1 1 1 1 0 0 0 1 1 1 0 0 0 0 0 0 0 0 0 0 0 0 0 0 0 0 0 0 0 0
2 2 2 2 1 2 4 6 6 5 4 3 1 0 0 0 0 0 0 0 1 2 2 1 0 0 0 0 0 0 0 0 0 0 0 0 0 0 0 0 0 0 0
5 4 4 2 2 3 5 7 7 6 4 2 1 0 0 0 0 0 0 0 1 2 2 1 0 0 0 0 0 0 0 0 0 0 0 0 0 0 0 0 0 0 0
8 7 5 3 3 3 5 6 7 6 4 1 0 0 0 0 0 0 0 0 0 1 1 0 0 0 0 0 0 0 0 0 0 0 0 0 0 0 0 0 0 0 0

GEFSSE_con_prob3kmehi_342.txt.gz
EHI
0 2 5 6 6 6 5 4 3 3 3 3 3 3 3 3 2 2 2 2 2 2 2 2 1 0 0 0 0 1 3 4 3 2 1 0 0 0 0 0 1 1 1
1 3 5 6 5 5 4 4 3 3 3 3 3 3 3 3 2 1 1 1 1 1 1 1 0 0 0 0 0 1 2 3 2 1 0 0 0 1 1 1 1 2 3
2 3 4 5 4 4 5 5 4 3 3 3 3 3 3 3 2 1 2 1 1 1 1 1 1 0 0 0 0 0 1 1 1 0 0 0 1 2 2 2 2 3 3
1 1 2 3 4 5 6 6 4 3 3 2 2 2 2 2 2 2 3 3 2 2 2 2 2 1 0 0 0 0 0 0 0 0 0 0 1 3 3 2 2 3 4
0 0 1 2 4 5 6 6 4 3 1 1 1 1 1 1 1 2 3 3 3 2 2 2 2 2 1 0 0 1 1 1 0 0 0 0 2 3 4 4 4 4 4
0 0 0 1 2 4 5 5 4 2 1 0 1 2 1 1 1 1 2 3 2 1 1 1 1 2 2 1 1 2 2 1 0 0 0 0 2 3 5 5 4 5 5
0 0 0 0 1 2 4 4 3 2 0 0 1 1 1 1 1 1 1 3 3 1 1 1 1 2 2 1 1 2 2 1 0 0 0 1 2 4 5 5 4 4 5
0 0 0 0 1 1 3 3 3 2 1 0 0 0 0 0 0 0 1 4 4 3 2 2 1 1 1 0 0 1 1 0 0 0 1 2 4 5 5 5 4 4 5
0 0 0 0 0 1 2 3 3 2 1 0 0 0 0 0 0 1 3 5 5 3 2 2 1 1 1 1 0 0 0 0 1 2 1 2 4 4 4 3 3 3 3
1 1 0 0 0 0 1 1 2 2 2 1 1 1 1 0 0 1 2 4 4 2 1 1 2 3 2 2 1 0 0 1 2 3 2 3 3 2 1 1 1 1 1
1 1 1 0 0 0 0 1 2 3 3 2 2 2 1 0 0 0 1 3 3 2 0 1 2 3 2 1 1 0 0 0 2 3 3 3 3 2 1 1 0 1 2
2 2 2 1 1 2 1 1 1 1 1 1 1 1 1 0 0 1 2 3 3 2 1 1 2 1 0 0 1 1 0 0 1 2 3 3 3 2 2 1 1 1 2
1 2 2 2 3 3 2 1 0 0 0 0 0 0 0 0 0 1 2 3 3 3 2 2 1 1 1 1 1 1 0 0 1 1 2 2 2 1 1 1 1 2 3
0 1 1 2 3 4 4 2 1 0 0 0 0 1 0 0 1 2 3 3 3 3 3 2 1 2 2 2 1 0 0 0 0 1 2 2 1 0 0 2 3 3 2
0 0 0 1 2 4 6 4 2 0 0 0 0 1 1 2 3 4 5 4 4 4 4 3 3 3 3 2 1 0 0 1 1 1 2 1 0 0 1 3 3 2 2
1 1 1 0 1 4 6 6 4 2 2 1 1 2 3 4 5 6 6 5 4 3 4 4 3 2 1 1 0 0 0 1 2 2 2 1 0 0 0 1 2 2 2
3 3 2 1 2 5 7 7 6 4 4 3 2 3 3 3 5 5 5 4 3 2 2 2 1 1 0 0 0 0 0 0 1 2 1 0 0 0 0 0 1 1 2
4 5 5 4 5 7 8 8 6 5 5 4 4 3 2 1 2 3 3 2 1 1 0 0 0 0 0 0 0 0 0 0 0 1 1 0 0 0 1 1 2 2 2
5 7 8 8 7 7 7 7 6 6 7 7 5 4 2 1 1 2 2 1 1 1 1 0 0 1 1 1 1 0 0 0 0 0 0 0 0 0 1 2 2 3 3
7 9 10 10 10 8 7 6 6 6 7 7 6 5 3 2 1 1 1 2 3 2 1 0 0 0 1 1 1 0 0 1 1 0 0 0 0 0 0 1 2 3 3
10 10 10 10 10 10 7 6 6 6 6 5 4 4 3 3 2 1 1 3 3 3 1 0 0 0 0 1 1 0 0 1 1 0 0 0 0 0 0 1 2 4 4
11 11 10 9 10 10 8 7 7 7 6 4 3 3 3 3 1 1 2 3 3 3 2 1 1 0 0 1 1 1 0 1 1 1 0 0 0 1 1 2 3 4 5
9 10 10 11 10 8 8 8 7 7 6 4 4 3 3 2 1 1 2 3 3 3 3 2 1 1 1 1 2 2 1 1 1 1 0 0 1 2 3 4 4 5 5
9 9 10 11 10 8 8 8 6 5 4 5 4 4 3 1 0 1 2 3 3 3 3 2 1 0 1 2 2 3 2 2 2 2 1 0 1 2 3 3 4 4 4
9 9 9 11 11 10 11 10 7 4 4 4 4 3 2 1 0 1 2 2 2 2 2 1 0 0 0 1 2 2 1 1 2 3 2 1 1 1 1 2 2 2 1
9 8 8 11 13 13 14 13 9 5 4 3 3 2 1 0 0 1 2 2 1 2 2 2 1 0 0 0 1 1 0 0 2 2 2 2 2 1 0 1 1 1 0

GEFSSE_con_prob3kmehi_348.txt.gz
EHI
8 4 2 5 7 6 4 3 3 2 2 3 2 1 0 0 0 0 0 0 1 2 2 2 3 2 1 0 1 2 3 3 3 3 2 1 0 1 0 0 0 1 2
9 4 2 5 6 5 4 3 2 1 1 2 1 0 0 0 0 0 0 0 0 1 1 1 2 1 1 0 1 2 3 2 2 3 2 1 1 1 1 1 0 1 2
8 4 2 4 5 5 4 3 1 0 0 0 0 0 0 0 0 0 0 0 0 0 0 0 0 1 1 0 1 2 2 1 2 2 1 1 1 2 2 2 2 2 2
6 3 2 3 4 4 4 3 1 0 1 1 0 0 0 0 0 0 0 0 0 0 0 0 0 0 0 0 1 2 2 2 2 1 1 1 2 2 4 4 4 4 4
5 2 1 3 4 4 4 4 2 1 2 2 1 0 0 0 0 1 0 0 0 0 1 2 2 1 1 1 0 1 2 2 2 1 2 3 4 5 6 6 6 6 6
4 2 3 5 5 4 5 5 3 1 2 2 1 0 0 0 1 1 1 1 1 1 3 4 5 4 2 1 0 1 2 3 1 1 3 4 6 7 8 7 7 7 6
2 1 5 10 9 6 5 4 2 1 1 1 1 0 0 1 2 2 2 3 3 3 4 6 6 5 3 2 0 1 2 3 2 1 2 5 8 9 9 9 8 7 6
2 3 6 11 11 7 4 2 1 0 0 0 0 0 1 2 3 3 4 5 5 4 5 6 6 6 4 3 2 2 4 5 3 1 2 5 9 11 11 10 8 7 6
2 4 6 7 9 7 4 2 2 2 2 2 2 3 5 6 6 6 7 7 6 6 6 6 7 7 8 8 7 7 9 9 6 3 3 7 11 12 11 9 7 7 7
2 4 6 6 7 6 5 4 6 6 5 5 6 9 10 10 9 10 10 10 9 8 7 7 8 10 14 15 13 13 14 12 8 5 5 9 12 12 9 7 5 5 6
1 3 5 6 6 6 5 6 9 9 8 8 10 12 13 11 10 10 11 13 13 11 11 11 12 14 16 16 15 15 15 12 8 7 8 10 12 10 7 5 5 4 4
2 3 4 4 5 4 5 8 9 8 8 9 11 13 13 11 8 7 8 13 16 15 14 15 17 16 14 13 13 14 13 10 7 7 10 11 11 9 6 5 5 4 3
1 2 3 3 3 3 5 7 6 6 7 8 11 13 12 10 8 6 6 9 12 14 14 15 16 15 11 9 8 10 10 7 4 5 9 11 9 7 6 6 5 4 5
1 3 4 6 7 7 7 6 5 4 4 6 9 11 10 9 8 7 6 7 9 10 10 11 11 10 8 6 5 6 7 6 4 4 7 9 8 7 6 6 5 5 6
4 5 8 13 16 15 12 9 6 4 3 6 10 12 11 9 9 9 7 7 8 9 9 9 9 7 6 6 5 5 5 5 5 5 5 8 8 7 7 8 8 6 5
6 7 11 17 22 20 15 11 8 6 6 8 12 15 11 10 11 10 8 8 9 11 13 12 10 9 9 8 7 5 4 4 6 7 5 6 7 7 7 9 8 5 4
7 10 12 16 21 20 14 10 8 7 8 10 13 15 12 10 11 10 8 7 9 12 14 13 10 9 10 9 6 5 5 5 7 8 7 7 5 5 6 7 7 5 3
14 15 14 16 20 19 14 10 7 7 8 10 12 13 12 10 9 7 6 6 7 10 11 10 8 7 6 6 6 6 7 8 8 9 9 9 7 5 4 6 6 4 3
25 23 19 18 20 19 16 11 7 6 7 10 10 9 10 9 7 4 4 5 6 6 7 6 6 7 5 4 5 7 9 11 11 10 10 9 8 5 5 6 7 5 4
32 30 26 23 23 22 18 12 8 7 8 10 9 8 8 7 4 3 5 6 6 4 4 4 6 8 6 4 4 6 10 13 14 14 12 9 7 7 8 9 8 6 4
35 35 34 31 28 23 18 13 11 12 12 11 11 10 10 7 5 4 7 8 7 5 4 4 5 6 5 4 3 4 8 12 15 16 14 10 7 8 11 13 13 9 6
34 36 38 37 33 26 20 16 16 16 14 11 11 14 15 12 8 7 8 9 8 8 8 8 7 5 3 3 3 3 5 8 11 12 13 11 8 10 12 14 16 14 11
30 34 39 40 38 33 26 21 19 19 16 13 14 17 18 15 11 10 10 9 9 10 11 11 10 7 5 3 2 2 2 4 5 7 9 10 10 11 11 12 15 16 15
28 33 39 42 42 39 33 26 23 22 19 18 19 19 18 17 14 13 13 12 13 12 11 10 8 7 6 4 2 1 1 2 4 5 6 7 9 10 11 10 12 16 16
28 33 40 44 43 41 36 30 26 25 23 22 22 20 21 21 19 16 15 17 17 15 11 9 7 6 5 4 3 3 2 3 4 5 5 5 7 9 10 10 12 14 14
29 32 40 46 44 40 35 30 27 26 25 24 22 21 23 25 22 18 17 19 19 15 11 9 8 6 4 4 5 5 3 3 4 4 5 5 6 8 9 11 12 12 12

GEFSSE_con_prob3kmehi_354.txt.gz
EHI
0 2 6 7 4 1 1 3 4 2 0 0 1 2 2 3 4 6 7 4 1 0 0 0 1 0 0 1 2 2 2 2 2 1 0 0 0 1 2 2 2 1 1
0 2 5 5 2 0 0 2 2 2 1 1 1 1 1 2 3 5 5 3 1 0 0 1 1 1 0 1 2 2 1 2 2 1 0 0 0 0 1 1 1 0 1
0 1 2 2 0 0 0 0 1 2 3 2 2 1 1 1 1 2 3 2 1 0 0 1 2 2 1 1 1 1 1 1 2 1 0 0 0 0 0 0 0 0 0
0 0 1 1 0 1 1 1 0 1 2 2 2 2 2 1 0 1 2 2 1 0 1 1 2 2 2 1 1 1 0 0 1 1 0 0 0 0 1 0 0 0 0
0 0 1 2 2 2 2 1 1 2 2 1 1 1 2 1 0 1 2 3 3 2 2 3 3 3 3 2 2 1 0 0 0 0 0 0 0 1 1 1 0 1 1
0 1 3 5 4 2 1 0 1 2 3 2 1 1 2 2 1 2 2 4 5 5 4 3 3 3 3 3 3 2 1 1 1 0 0 0 0 1 3 2 2 3 3
0 1 3 5 4 3 2 0 1 2 4 4 3 3 3 2 2 3 3 4 5 6 4 3 3 4 4 5 5 5 4 3 2 1 0 0 0 1 4 5 4 4 3
0 0 2 3 3 4 3 2 2 4 6 6 5 4 4 4 4 4 4 5 5 5 5 4 5 6 7 8 9 9 7 4 3 2 1 0 0 2 5 6 5 3 2
0 0 0 1 1 3 4 5 5 5 6 7 6 5 7 7 6 6 7 6 5 5 6 7 9 10 10 10 12 12 10 5 3 3 2 1 2 5 7 7 5 3 2
1 0 0 0 0 1 3 6 8 8 7 8 8 8 9 8 7 7 8 7 6 6 7 9 12 11 10 10 12 12 9 4 2 2 1 1 3 6 9 9 6 4 3
3 1 0 0 0 0 1 3 6 7 6 7 8 8 7 7 6 6 6 6 6 6 7 9 11 10 8 7 8 8 6 4 2 1 1 1 4 7 10 11 8 4 3
5 3 1 1 0 0 0 0 1 2 3 3 4 5 4 4 4 5 5 4 4 5 6 6 7 6 5 4 4 3 4 4 3 2 2 3 5 7 9 9 7 5 4
4 3 3 2 2 1 0 1 1 1 1 1 2 2 2 2 2 3 3 2 3 3 3 4 4 3 2 1 1 1 2 3 3 3 2 3 5 6 6 6 4 4 4
3 2 2 3 4 3 2 2 2 2 2 2 2 3 2 1 1 2 2 1 1 1 1 2 2 1 1 0 0 0 1 2 3 2 2 2 3 4 5 4 3 3 3
2 2 2 3 5 6 5 3 2 2 1 1 2 3 4 3 2 2 2 0 0 0 0 1 1 1 0 0 0 0 0 1 2 2 1 1 2 3 3 2 1 1 1
5 4 4 4 6 6 5 3 3 2 1 1 2 4 5 5 4 4 2 1 0 0 1 1 1 1 0 0 0 0 0 0 1 1 1 0 0 1 2 1 1 1 1
9 9 7 6 6 5 4 2 1 2 3 3 3 4 5 4 4 4 3 1 0 0 1 2 2 1 0 0 0 0 0 0 0 0 0 0 0 1 2 1 1 1 1
12 12 11 8 6 4 3 2 1 3 4 4 3 4 4 3 3 3 2 1 0 0 1 1 1 0 0 0 0 0 0 0 0 0 0 0 0 0 1 0 0 1 2
13 14 14 12 9 6 5 4 3 4 4 3 4 4 4 3 3 2 1 0 0 0 0 0 0 0 0 0 0 0 0 1 0 0 0 0 0 0 0 0 0 1 2
15 16 17 17 14 10 6 5 4 3 3 3 3 4 4 3 1 1 0 0 0 0 0 0 0 0 0 0 0 0 0 0 0 0 0 0 0 0 0 0 0 0 1
21 22 23 23 19 13 8 6 5 4 3 3 4 4 4 2 0 0 0 0 0 0 0 0 1 1 0 0 0 0 0 0 0 0 0 0 0 0 0 0 0 0 0
29 29 28 26 21 15 10 8 7 6 5 5 5 6 6 4 2 1 0 0 0 0 0 1 2 2 1 1 2 1 1 0 0 1 0 0 0 0 0 0 0 1 1
31 32 30 26 22 17 13 11 9 7 7 6 6 7 7 6 5 3 1 1 1 0 1 1 3 3 3 3 3 3 2 1 1 1 0 0 0 0 0 0 1 1 1
31 30 28 25 21 18 15 13 11 9 7 6 5 6 7 7 6 6 5 4 4 3 3 3 2 3 3 3 3 3 3 3 2 1 0 0 0 0 0 0 1 2 3
30 28 26 23 20 17 14 13 12 11 8 6 5 5 6 5 5 6 7 7 6 5 4 4 2 1 2 3 3 3 3 3 3 2 1 1 1 1 1 1 1 3 5
28 27 25 22 19 16 14 13 13 12 11 8 5 5 4 4 4 5 6 6 6 5 5 4 2 1 1 3 3 3 3 3 3 3 2 1 1 2 2 2 1 3 5

GEFSSE_con_prob3kmehi_360.txt.gz
EHI
0 2 4 3 1 0 0 1 2 3 2 2 5 10 8 5 5 5 4 2 0 0 1 0 0 0 1 1 1 2 4 5 4 2 0 0 0 0 0 0 0 1 1
0 1 4 4 2 1 1 1 3 3 2 3 7 9 7 5 4 5 4 2 0 0 1 1 0 0 0 0 1 2 3 4 4 2 0 0 0 0 0 0 0 0 1
0 1 3 4 4 4 3 3 3 3 3 4 7 8 6 4 4 4 2 1 0 0 1 1 1 1 1 0 1 2 2 2 2 2 1 0 0 1 1 1 0 0 1
0 0 1 3 5 6 5 3 3 3 4 4 5 5 4 3 2 1 0 0 0 0 0 0 1 2 1 0 0 1 1 0 1 1 1 0 0 1 1 1 0 0 1
0 0 1 3 5 6 5 4 4 4 4 4 4 4 3 2 1 0 0 0 1 0 0 0 1 2 1 0 0 0 1 1 1 1 0 0 0 0 0 0 0 0 0
0 0 2 5 7 6 5 4 5 5 5 4 5 6 5 2 1 0 0 0 0 0 0 0 1 2 1 1 0 1 2 3 2 1 1 0 0 0 0 0 1 0 0
0 0 2 6 7 6 4 4 5 6 5 4 6 7 7 5 2 1 0 0 0 0 0 0 1 1 2 2 2 2 3 4 4 3 2 1 1 1 1 2 2 1 1
0 0 1 4 5 4 3 3 5 5 5 4 6 7 7 6 4 2 1 1 0 0 0 0 0 0 2 4 5 5 4 4 3 3 2 2 2 3 3 4 4 4 3
0 0 0 1 2 2 2 4 4 4 4 4 5 7 8 7 6 4 3 2 1 1 1 0 1 1 3 5 6 5 4 3 2 1 1 2 3 3 3 4 4 4 2
0 0 0 0 0 1 1 3 3 3 2 3 3 5 7 6 5 4 3 3 3 2 2 2 2 2 3 5 5 4 2 1 1 0 1 2 2 2 2 2 2 1 1
0 0 0 0 0 0 0 1 1 1 1 1 1 2 3 3 2 1 2 3 3 3 3 3 3 3 2 3 3 3 1 0 0 0 1 1 1 1 2 1 0 0 0
0 0 0 0 0 0 0 0 0 0 0 0 0 0 0 0 0 0 1 1 2 2 2 2 2 2 2 1 1 1 1 0 0 0 0 0 1 1 2 1 0 0 0
0 0 0 0 0 0 0 0 0 0 0 0 0 0 0 0 0 0 0 0 1 1 1 1 1 1 1 0 0 0 0 0 0 0 0 0 0 1 1 0 0 0 0
0 0 0 0 0 0 0 0 0 0 0 0 0 0 0 0 0 0 0 0 0 0 0 0 0 0 0 0 0 0 0 0 0 0 0 0 0 0 0 0 0 0 0
0 0 0 0 0 0 0 0 0 0 0 0 0 0 0 0 0 0 0 0 0 0 0 0 0 0 0 0 0 0 0 0 0 0 0 0 0 1 1 1 0 0 0
0 0 0 0 0 0 0 0 0 0 0 0 0 0 0 0 0 0 0 0 0 0 0 0 0 0 0 0 0 0 0 0 0 0 0 0 0 1 1 1 0 0 0
1 0 0 1 1 1 0 0 0 0 0 0 0 0 0 1 1 0 0 0 0 0 0 0 0 0 0 0 0 0 0 0 0 0 0 0 0 0 0 0 0 0 0
1 1 1 2 3 2 1 1 0 0 0 0 1 1 1 2 2 0 0 0 0 0 0 0 0 0 0 0 0 0 0 0 0 0 0 0 0 0 0 0 0 0 0
1 1 3 4 4 3 3 2 2 2 1 1 2 2 2 3 1 0 0 0 0 0 0 0 0 1 1 0 0 0 0 0 0 0 1 0 0 0 0 0 0 0 1
2 3 5 5 4 3 4 4 5 5 4 3 3 3 2 1 0 0 0 0 0 0 0 0 0 1 1 1 0 0 0 0 0 0 1 1 1 1 1 0 0 0 1
6 6 6 6 4 4 5 6 6 6 6 4 3 3 1 1 0 0 0 0 0 0 0 0 0 1 1 2 1 1 0 0 0 1 1 2 2 2 2 1 0 0 1
10 9 9 7 5 5 6 6 6 6 6 4 3 2 2 1 0 0 0 0 0 0 0 0 0 1 1 2 3 2 1 0 0 1 2 2 2 2 2 1 1 1 1
10 10 10 7 6 6 6 6 6 5 4 3 2 1 1 1 0 0 0 0 0 0 0 0 0 1 2 3 3 3 2 1 1 1 1 1 1 1 1 1 1 1 2
9 9 7 5 5 5 5 5 5 4 3 2 1 0 0 0 0 0 0 0 1 1 1 0 0 1 1 2 2 2 2 2 2 2 1 1 0 0 0 1 1 1 1
11 10 8 5 5 6 6 5 4 4 3 2 1 0 0 0 0 0 0 0 1 2 2 1 1 0 0 1 1 1 1 2 2 1 1 0 0 0 0 1 2 1 1
12 12 10 7 5 6 7 6 5 4 3 2 1 0 0 0 0 0 0 0 1 3 3 2 2 1 0 0 0 0 0 1 1 1 0 0 0 0 0 1 2 2 2

GEFSSE_con_prob3kmehi_366.txt.gz
EHI
3 3 3 4 4 3 3 3 4 5 7 7 8 8 7 7 6 6 5 4 4 4 5 7 7 6 4 3 3 4 6 7 7 6 4 3 3 3 3 4 4 5 6
3 3 3 3 3 2 2 2 4 5 7 9 9 9 8 7 7 6 6 5 4 4 7 8 7 6 4 4 4 4 6 7 7 6 4 3 3 3 3 4 4 4 5
3 3 3 3 2 1 1 1 4 6 9 11 11 11 10 8 7 6 6 6 4 4 6 8 8 7 5 4 4 4 6 6 6 6 4 3 3 3 3 3 4 4 4
2 2 3 3 3 2 2 2 5 8 10 11 12 12 10 8 7 6 6 6 5 4 5 6 8 8 6 4 4 4 5 6 6 5 3 3 2 3 3 3 3 4 4
1 1 3 4 4 3 3 4 6 9 10 10 11 11 9 7 6 6 6 6 6 5 4 4 6 8 6 4 3 3 4 6 5 4 3 3 3 3 3 3 3 3 3
0 0 2 4 4 3 4 5 7 8 7 7 9 9 8 7 6 6 6 6 6 6 4 4 5 6 6 5 4 3 4 5 4 3 3 3 3 3 3 3 3 3 3
1 1 3 5 4 3 4 5 6 5 5 5 7 8 7 6 6 6 6 6 6 6 5 4 5 6 5 4 3 3 4 4 4 3 3 3 4 5 5 4 4 4 4
2 2 3 5 5 4 3 3 3 3 3 5 7 8 7 7 7 7 7 6 6 6 6 5 5 5 4 3 3 3 4 4 4 3 3 4 5 7 7 6 5 5 5
3 3 3 4 4 3 2 2 1 1 2 5 6 7 7 7 8 9 9 7 7 7 7 6 5 4 3 3 4 4 4 5 4 3 3 4 6 8 7 5 4 4 4
3 3 3 3 3 3 2 2 2 1 2 4 6 6 6 6 7 8 8 8 9 9 8 6 5 4 4 5 6 6 6 6 5 3 3 4 6 7 5 3 2 3 4
3 3 3 3 3 3 2 1 2 2 3 5 6 6 5 5 6 6 7 8 9 9 8 7 6 6 6 7 7 7 7 7 5 4 3 4 5 5 4 3 2 4 5
3 3 3 3 4 3 1 0 1 2 3 4 3 5 5 5 5 5 6 6 7 7 8 8 7 7 7 7 6 6 6 5 4 4 4 5 5 4 5 4 4 5 6
3 3 3 4 4 3 1 0 0 2 3 2 2 3 4 4 4 4 4 4 4 5 6 8 7 6 5 5 4 3 4 4 4 5 7 8 7 6 6 6 5 4 5
4 4 4 5 5 3 1 0 0 1 2 1 1 1 2 3 2 3 3 4 3 3 4 5 5 4 3 4 3 2 3 5 5 6 10 12 11 10 9 7 6 5 5
5 5 6 7 7 4 2 1 1 0 0 0 0 0 1 1 1 2 4 6 4 3 3 4 4 3 3 3 3 2 2 4 5 6 10 14 15 13 11 9 7 6 6
9 8 8 9 7 5 3 3 2 1 0 0 0 0 0 0 1 3 5 5 4 2 4 4 3 3 3 3 3 2 1 2 3 6 9 12 15 15 13 11 9 7 6
10 10 8 6 6 5 4 3 3 1 1 1 0 0 0 1 3 4 4 4 2 3 4 5 4 4 4 4 3 3 3 3 4 5 7 9 12 13 12 11 10 7 6
8 9 7 5 4 5 4 3 3 3 2 2 2 2 3 3 4 5 4 3 2 4 5 6 6 6 6 5 4 4 5 6 6 6 5 5 6 7 8 9 9 7 6
6 8 9 7 6 6 5 4 3 3 3 3 4 6 7 7 6 6 5 4 4 5 6 6 6 6 6 6 5 5 7 8 8 7 5 3 2 2 3 7 8 7 6
6 8 10 10 10 8 7 5 4 4 4 4 7 9 9 9 9 6 5 4 5 6 6 6 6 6 6 6 5 6 7 8 8 7 5 3 1 1 2 5 7 7 6
7 9 11 12 12 10 8 7 7 6 6 6 7 9 9 8 8 6 4 5 6 8 8 8 7 6 6 6 6 6 6 6 7 7 6 4 2 3 3 4 5 7 6
10 11 13 14 15 14 13 11 10 9 8 8 8 8 8 7 6 6 6 7 9 11 11 10 9 6 5 5 6 6 6 6 7 7 6 5 4 4 4 3 4 5 5
13 13 14 15 17 19 18 15 12 11 11 10 10 10 8 7 7 7 8 9 11 12 12 12 11 9 6 6 6 6 5 6 6 6 6 6 6 5 4 3 3 3 3
12 12 13 15 18 21 21 17 13 12 11 11 11 10 8 7 6 7 7 9 11 12 12 12 13 12 10 7 7 6 5 5 5 5 5 6 7 7 5 4 3 3 2
10 11 13 15 18 21 20 18 16 12 9 9 9 9 7 6 6 7 6 7 10 12 12 13 13 13 12 10 8 7 6 6 5 5 4 5 6 7 6 5 5 4 3
10 11 13 16 19 20 19 17 16 13 10 9 9 8 6 5 6 7 6 6 9 12 13 13 13 13 12 11 10 7 7 7 6 5 4 4 6 7 6 6 6 5 5